Regional Weather Roundup
Issued by NWS

Home | Current Version | Previous Version | Text Only | Print | Product List | Glossary On
Versions: 1 2 3 4 5 6 7 8 9 10 11 12 13 14 15 16 17 18 19 20 21 22 23 24 25 26 27 28 29 30 31 32 33 34 35 36 37 38 39 40 41 42 43 44 45 46 47 48 49 50
000
ASUS46 KPQR 272210
RWROR

OREGON REGIONAL WEATHER ROUNDUP
NATIONAL WEATHER SERVICE PORTLAND OR
300 PM PDT TUE JUN 27 2017

NOTE: "FAIR" INDICATES FEW OR NO CLOUDS BELOW 12,000 FEET WITH
NO SIGNIFICANT WEATHER AND/OR OBSTRUCTIONS TO VISIBILITY.

ORZ001>013-272300-
NORTHWEST OREGON


CITY           SKY/WX    TMP DP  RH WIND       PRES   REMARKS
ASTORIA        FAIR      64  48  56 W6        30.05F
NEWPORT        FAIR      63  52  67 NW12      30.10F
PORTLAND       PTSUNNY   69  51  52 NW6       30.02F
VANCOUVER WA   FAIR      69  52  54 W6        30.02F
SCAPPOOSE      FAIR      69  53  56 VRB5      30.00F
HILLSBORO      FAIR      70  50  49 N3        30.01F
AURORA         FAIR      71  51  49 CALM      30.02F
MCMINNVILLE    FAIR      71  51  49 E5        30.02F
SALEM          FAIR      72  50  45 VRB3      30.01F
CORVALLIS      PTSUNNY   73  50  43 CALM      30.03F
EUGENE         PTSUNNY   68  54  60 N6        30.02F
$$

ORZ021-028-272300-
SOUTHWEST OREGON


CITY           SKY/WX    TMP DP  RH WIND       PRES   REMARKS
NORTH BEND     CLOUDY    63  52  67 N17G23    30.07F
BROOKINGS      FAIR      64  54  69 S12       30.00F
ROSEBURG       FAIR      73  54  51 N9        29.99F
SEXTON SUMMIT  FAIR      72  51  47 CALM      30.05S
GRANTS PASS    FAIR      84  46  26 VRB6      29.95F
MEDFORD        FAIR      87  40  19 W5        29.90F
$$

ORZ014>016-041-272300-
COLUMBIA GORGE


CITY           SKY/WX    TMP DP  RH WIND       PRES   REMARKS
TROUTDALE      FAIR      70  51  51 VRB6      30.01F
HOOD RIVER     FAIR      72  48  43 W6G22     29.91F
THE DALLES     FAIR      77  51  40 NW24G31   29.85F
$$

ORZ029>031-041-044-049-050-061>064-502-503-505>511-272300-
EASTERN OREGON


CITY           SKY/WX    TMP DP  RH WIND       PRES   REMARKS
MADRAS         FAIR      82  30  15 NW8G18    29.93F
REDMOND        FAIR      85  41  21 N13       29.92F
BEND           FAIR      82  45  26 N12G18    29.94F
PRINEVILLE     FAIR      82  39  21 N13       29.94F
KLAMATH FALLS  FAIR      82  34  17 W17       29.99F
LAKEVIEW       FAIR      81  35  19 SE9       30.00F
HERMISTON      FAIR      85  38  18 VRB6      29.82F
PENDLETON      FAIR      81  42  25 SW10      29.86F
JOHN DAY       FAIR      83  44  25 CALM      29.92F
MEACHAM        FAIR      72  39  30 CALM      29.97F
LA GRANDE      FAIR      82  48  30 NW8       29.88F
BAKER CITY     FAIR      78  50  37 W9        29.90F
BURNS          FAIR      79  37  22 VRB6      29.95F
ROME             N/A     87  31  13 W13G24    29.91F
ONTARIO        FAIR      90  44  20 VRB3      29.81F
$$



USA.gov is the U.S. government's official web portal to all federal, state and local government web resources and services.